Time,TemperatureF,DewpointF,PressureIn,WindDirection,WindDirectionDegrees,WindSpeedMPH,WindSpeedGustMPH,Humidity,HourlyPrecipIn,Conditions,Clouds,dailyrainin,SoftwareType,DateUTC
2013-01-10 00:03:00,77.0,71.0,30.20,ESE,107,15.0,24.0,83,0.00,,,0.00,,2013-01-10 05:03:00,
2013-01-10 00:12:00,77.0,71.0,30.20,ESE,107,15.0,24.0,83,0.00,,,0.00,,2013-01-10 05:12:00,
2013-01-10 00:22:00,77.0,71.0,30.19,East,87,14.0,25.0,83,0.00,,,0.00,,2013-01-10 05:22:00,
2013-01-10 00:33:00,77.0,71.0,30.19,East,90,13.0,30.0,83,0.00,,,0.00,,2013-01-10 05:33:00,
2013-01-10 00:43:00,77.0,71.0,30.19,East,90,13.0,30.0,83,0.00,,,0.00,,2013-01-10 05:43:00,
2013-01-10 00:53:00,77.0,71.0,30.19,ENE,78,13.0,22.0,83,0.00,,,0.00,,2013-01-10 05:53:00,
2013-01-10 01:02:00,77.0,71.0,30.19,East,80,14.0,23.0,83,0.00,,,0.00,,2013-01-10 06:02:00,
2013-01-10 01:12:00,77.0,71.0,30.19,East,80,14.0,23.0,83,0.00,,,0.00,,2013-01-10 06:12:00,
2013-01-10 01:22:00,77.0,71.0,30.19,ESE,110,15.0,24.0,83,0.00,,,0.00,,2013-01-10 06:22:00,
2013-01-10 01:32:00,77.0,71.0,30.18,East,101,11.0,28.0,83,0.00,,,0.00,,2013-01-10 06:32:00,
2013-01-10 01:42:00,77.0,71.0,30.18,East,101,11.0,28.0,83,0.00,,,0.00,,2013-01-10 06:42:00,
2013-01-10 01:52:00,77.0,72.0,30.18,East,90,9.0,25.0,84,0.00,,,0.00,,2013-01-10 06:52:00,
2013-01-10 02:02:00,77.0,72.0,30.18,East,87,10.0,23.0,84,0.00,,,0.00,,2013-01-10 07:02:00,
2013-01-10 02:12:00,77.0,72.0,30.18,East,87,10.0,23.0,84,0.00,,,0.00,,2013-01-10 07:12:00,
2013-01-10 02:22:00,77.0,72.0,30.18,ESE,105,11.0,25.0,84,0.00,,,0.00,,2013-01-10 07:22:00,
2013-01-10 02:32:00,77.0,72.0,30.18,ENE,71,10.0,22.0,84,0.00,,,0.00,,2013-01-10 07:32:00,
2013-01-10 02:42:00,77.0,72.0,30.18,ENE,71,10.0,22.0,84,0.00,,,0.00,,2013-01-10 07:42:00,
2013-01-10 02:52:00,77.0,72.0,30.18,ENE,67,9.0,26.0,84,0.00,,,0.00,,2013-01-10 07:52:00,
2013-01-10 03:02:00,77.0,72.0,30.18,East,98,16.0,23.0,84,0.00,,,0.00,,2013-01-10 08:02:00,
2013-01-10 03:12:00,77.0,72.0,30.18,East,98,16.0,23.0,84,0.00,,,0.00,,2013-01-10 08:12:00,
2013-01-10 03:22:00,77.0,71.0,30.18,ESE,117,10.0,22.0,83,0.00,,,0.00,,2013-01-10 08:22:00,
2013-01-10 03:32:00,77.0,71.0,30.17,SE,125,13.0,23.0,83,0.00,,,0.00,,2013-01-10 08:32:00,
2013-01-10 03:42:00,77.0,71.0,30.17,SE,125,13.0,23.0,83,0.00,,,0.00,,2013-01-10 08:42:00,
2013-01-10 03:53:00,77.0,71.0,30.17,ESE,110,10.0,-999.0,83,-99.99,,,-99.99,,2013-01-10 08:53:00,
2013-01-10 04:02:00,77.0,71.0,30.17,SE,141,10.0,-999.0,83,-99.99,,,-99.99,,2013-01-10 09:02:00,
2013-01-10 04:12:00,77.0,71.0,30.17,SE,141,10.0,-999.0,83,-99.99,,,-99.99,,2013-01-10 09:12:00,
2013-01-10 04:22:00,77.0,71.0,30.17,ENE,63,10.0,-999.0,83,-99.99,,,-99.99,,2013-01-10 09:22:00,
2013-01-10 04:32:00,77.0,71.0,30.17,East,86,13.0,-999.0,83,-99.99,,,-99.99,,2013-01-10 09:32:00,
2013-01-10 04:42:00,77.0,71.0,30.17,East,86,13.0,-999.0,83,-99.99,,,-99.99,,2013-01-10 09:42:00,
2013-01-10 04:53:00,77.0,71.0,30.17,ESE,115,10.0,-999.0,83,-99.99,,,-99.99,,2013-01-10 09:53:00,
2013-01-10 05:03:00,76.0,70.0,30.16,East,88,10.0,-999.0,83,-99.99,,,-99.99,,2013-01-10 10:03:00,
2013-01-10 05:12:00,76.0,70.0,30.16,East,88,10.0,-999.0,83,-99.99,,,-99.99,,2013-01-10 10:12:00,
2013-01-10 05:22:00,76.0,70.0,30.16,ESE,102,12.0,-999.0,83,-99.99,,,-99.99,,2013-01-10 10:22:00,
2013-01-10 05:32:00,76.0,70.0,30.17,SE,126,10.0,-999.0,83,-99.99,,,-99.99,,2013-01-10 10:32:00,
2013-01-10 05:42:00,76.0,70.0,30.17,SE,126,10.0,-999.0,83,-99.99,,,-99.99,,2013-01-10 10:42:00,
2013-01-10 05:52:00,76.0,70.0,30.17,East,84,10.0,-999.0,83,-99.99,,,-99.99,,2013-01-10 10:52:00,
2013-01-10 06:03:00,76.0,70.0,30.17,East,92,12.0,-999.0,82,-99.99,,,-99.99,,2013-01-10 11:03:00,
2013-01-10 06:12:00,76.0,70.0,30.17,East,92,12.0,-999.0,82,-99.99,,,-99.99,,2013-01-10 11:12:00,
2013-01-10 06:22:00,76.0,69.0,30.17,East,91,13.0,-999.0,80,-99.99,,,-99.99,,2013-01-10 11:22:00,
2013-01-10 06:33:00,76.0,69.0,30.18,East,82,12.0,-999.0,79,-99.99,,,-99.99,,2013-01-10 11:33:00,
2013-01-10 06:43:00,76.0,69.0,30.18,East,82,12.0,-999.0,79,-99.99,,,-99.99,,2013-01-10 11:43:00,
2013-01-10 06:53:00,76.0,70.0,30.18,ESE,108,10.0,-999.0,81,-99.99,,,-99.99,,2013-01-10 11:53:00,
2013-01-10 07:03:00,76.0,70.0,30.19,East,101,11.0,-999.0,81,-99.99,,,-99.99,,2013-01-10 12:03:00,
2013-01-10 07:12:00,76.0,70.0,30.19,East,101,11.0,-999.0,81,-99.99,,,-99.99,,2013-01-10 12:12:00,
2013-01-10 07:22:00,76.0,70.0,30.19,East,88,8.0,-999.0,81,-99.99,,,-99.99,,2013-01-10 12:22:00,
2013-01-10 07:33:00,76.0,69.0,30.19,East,93,12.0,-999.0,80,-99.99,,,-99.99,,2013-01-10 12:33:00,
2013-01-10 07:43:00,76.0,69.0,30.19,East,93,12.0,-999.0,80,-99.99,,,-99.99,,2013-01-10 12:43:00,
2013-01-10 07:53:00,76.0,70.0,30.20,ESE,117,10.0,-999.0,81,-99.99,,,-99.99,,2013-01-10 12:53:00,
2013-01-10 08:02:00,76.0,70.0,30.20,ESE,122,9.0,-999.0,81,-99.99,,,-99.99,,2013-01-10 13:02:00,
2013-01-10 08:12:00,76.0,70.0,30.20,ESE,122,9.0,-999.0,81,-99.99,,,-99.99,,2013-01-10 13:12:00,
2013-01-10 08:22:00,77.0,70.0,30.20,ENE,72,12.0,-999.0,79,-99.99,,,-99.99,,2013-01-10 13:22:00,
2013-01-10 08:32:00,77.0,70.0,30.21,ESE,107,11.0,-999.0,78,-99.99,,,-99.99,,2013-01-10 13:32:00,
2013-01-10 08:42:00,77.0,70.0,30.21,ESE,107,11.0,-999.0,78,-99.99,,,-99.99,,2013-01-10 13:42:00,
2013-01-10 08:53:00,77.0,69.0,30.22,ENE,74,10.0,-999.0,77,-99.99,,,-99.99,,2013-01-10 13:53:00,
2013-01-10 09:02:00,77.0,70.0,30.22,East,96,10.0,-999.0,78,-99.99,,,-99.99,,2013-01-10 14:02:00,
2013-01-10 09:12:00,77.0,70.0,30.22,East,96,10.0,-999.0,78,-99.99,,,-99.99,,2013-01-10 14:12:00,
2013-01-10 09:22:00,77.0,70.0,30.22,East,92,10.0,-999.0,78,-99.99,,,-99.99,,2013-01-10 14:22:00,
2013-01-10 09:33:00,77.0,70.0,30.22,East,85,10.0,-999.0,78,-99.99,,,-99.99,,2013-01-10 14:33:00,
2013-01-10 09:43:00,77.0,70.0,30.22,East,85,10.0,-999.0,78,-99.99,,,-99.99,,2013-01-10 14:43:00,
2013-01-10 09:53:00,77.0,69.0,30.22,East,82,12.0,-999.0,76,-99.99,,,-99.99,,2013-01-10 14:53:00,
2013-01-10 10:03:00,78.0,69.0,30.22,East,83,10.0,-999.0,75,-99.99,,,-99.99,,2013-01-10 15:03:00,
2013-01-10 10:12:00,78.0,69.0,30.22,East,83,10.0,-999.0,75,-99.99,,,-99.99,,2013-01-10 15:12:00,
2013-01-10 10:23:00,77.0,69.0,30.22,East,82,11.0,-999.0,76,-99.99,,,-99.99,,2013-01-10 15:23:00,
2013-01-10 10:33:00,78.0,69.0,30.22,ENE,75,12.0,-999.0,75,-99.99,,,-99.99,,2013-01-10 15:33:00,
2013-01-10 10:43:00,78.0,69.0,30.22,ENE,75,12.0,-999.0,75,-99.99,,,-99.99,,2013-01-10 15:43:00,
2013-01-10 10:53:00,78.0,70.0,30.22,East,85,12.0,-999.0,76,-99.99,,,-99.99,,2013-01-10 15:53:00,
2013-01-10 11:03:00,78.0,70.0,30.21,ESE,113,11.0,-999.0,77,-99.99,,,-99.99,,2013-01-10 16:03:00,
2013-01-10 11:13:00,78.0,70.0,30.21,ESE,113,11.0,-999.0,77,-99.99,,,-99.99,,2013-01-10 16:13:00,
2013-01-10 11:23:00,78.0,71.0,30.20,East,81,12.0,-999.0,78,-99.99,,,-99.99,,2013-01-10 16:23:00,
2013-01-10 11:33:00,78.0,71.0,30.19,East,80,14.0,-999.0,78,-99.99,,,-99.99,,2013-01-10 16:33:00,
2013-01-10 11:43:00,78.0,71.0,30.19,East,80,14.0,-999.0,78,-99.99,,,-99.99,,2013-01-10 16:43:00,
2013-01-10 11:53:00,78.0,71.0,30.18,ENE,75,13.0,-999.0,78,-99.99,,,-99.99,,2013-01-10 16:53:00,
2013-01-10 12:03:00,78.0,70.0,30.17,ESE,104,11.0,-999.0,77,-99.99,,,-99.99,,2013-01-10 17:03:00,
2013-01-10 12:12:00,78.0,70.0,30.17,ESE,104,11.0,-999.0,77,-99.99,,,-99.99,,2013-01-10 17:12:00,
2013-01-10 12:22:00,78.0,70.0,30.16,ESE,111,13.0,-999.0,77,-99.99,,,-99.99,,2013-01-10 17:22:00,
2013-01-10 12:33:00,78.0,71.0,30.16,ESE,116,15.0,-999.0,78,-99.99,,,-99.99,,2013-01-10 17:33:00,
2013-01-10 12:42:00,78.0,71.0,30.16,ESE,116,15.0,-999.0,78,-99.99,,,-99.99,,2013-01-10 17:42:00,
2013-01-10 12:53:00,78.0,71.0,30.13,East,98,14.0,-999.0,79,-99.99,,,-99.99,,2013-01-10 17:53:00,
2013-01-10 13:03:00,78.0,71.0,30.13,East,84,13.0,-999.0,78,-99.99,,,-99.99,,2013-01-10 18:03:00,
2013-01-10 13:12:00,79.0,72.0,30.12,ENE,68,9.0,-999.0,79,-99.99,,,-99.99,,2013-01-10 18:12:00,
2013-01-10 13:23:00,79.0,72.0,30.12,ENE,68,9.0,-999.0,79,-99.99,,,-99.99,,2013-01-10 18:23:00,
2013-01-10 13:33:00,78.0,71.0,30.12,East,101,13.0,-999.0,79,-99.99,,,-99.99,,2013-01-10 18:33:00,
2013-01-10 13:43:00,78.0,71.0,30.10,ESE,118,16.0,-999.0,80,-99.99,,,-99.99,,2013-01-10 18:43:00,
2013-01-10 13:53:00,78.0,71.0,30.10,ESE,118,16.0,-999.0,80,-99.99,,,-99.99,,2013-01-10 18:53:00,
2013-01-10 14:03:00,78.0,71.0,30.10,SE,127,15.0,-999.0,80,-99.99,,,-99.99,,2013-01-10 19:03:00,
2013-01-10 14:13:00,78.0,71.0,30.10,East,101,16.0,-999.0,80,-99.99,,,-99.99,,2013-01-10 19:13:00,
2013-01-10 14:23:00,78.0,71.0,30.10,East,101,16.0,-999.0,80,-99.99,,,-99.99,,2013-01-10 19:23:00,
2013-01-10 14:33:00,78.0,71.0,30.10,ESE,103,15.0,-999.0,80,-99.99,,,-99.99,,2013-01-10 19:33:00,
2013-01-10 14:43:00,78.0,71.0,30.10,ESE,103,15.0,-999.0,80,-99.99,,,-99.99,,2013-01-10 19:43:00,
2013-01-10 14:53:00,78.0,71.0,30.10,ESE,102,15.0,-999.0,79,-99.99,,,-99.99,,2013-01-10 19:53:00,
2013-01-10 15:03:00,78.0,71.0,30.10,ESE,121,15.0,-999.0,80,-99.99,,,-99.99,,2013-01-10 20:03:00,
2013-01-10 15:13:00,78.0,71.0,30.10,ESE,121,15.0,-999.0,80,-99.99,,,-99.99,,2013-01-10 20:13:00,
2013-01-10 15:24:00,78.0,71.0,30.11,ESE,111,16.0,-999.0,80,-99.99,,,-99.99,,2013-01-10 20:24:00,
2013-01-10 15:33:00,78.0,71.0,30.12,ESE,108,13.0,-999.0,79,-99.99,,,-99.99,,2013-01-10 20:33:00,
2013-01-10 15:43:00,78.0,71.0,30.12,ESE,108,13.0,-999.0,79,-99.99,,,-99.99,,2013-01-10 20:43:00,
2013-01-10 15:53:00,78.0,71.0,30.13,East,91,14.0,-999.0,78,-99.99,,,-99.99,,2013-01-10 20:53:00,
2013-01-10 16:04:00,78.0,71.0,30.13,East,101,10.0,-999.0,79,-99.99,,,-99.99,,2013-01-10 21:04:00,
2013-01-10 16:13:00,78.0,70.0,30.14,East,87,8.0,-999.0,77,-99.99,,,-99.99,,2013-01-10 21:13:00,
2013-01-10 16:23:00,78.0,70.0,30.14,East,87,8.0,-999.0,77,-99.99,,,-99.99,,2013-01-10 21:23:00,
2013-01-10 16:33:00,78.0,69.0,30.14,ENE,73,8.0,-999.0,75,-99.99,,,-99.99,,2013-01-10 21:33:00,
2013-01-10 16:53:00,78.0,69.0,30.14,East,89,10.0,-999.0,74,-99.99,,,-99.99,,2013-01-10 21:53:00,
2013-01-10 17:04:00,78.0,70.0,30.15,ENE,73,10.0,-999.0,76,-99.99,,,-99.99,,2013-01-10 22:04:00,
2013-01-10 17:13:00,78.0,70.0,30.15,East,83,8.0,-999.0,77,-99.99,,,-99.99,,2013-01-10 22:13:00,
2013-01-10 17:27:00,78.0,70.0,30.15,East,83,8.0,-999.0,77,-99.99,,,-99.99,,2013-01-10 22:27:00,
2013-01-10 17:33:00,78.0,70.0,30.15,ESE,109,8.0,-999.0,76,-99.99,,,-99.99,,2013-01-10 22:33:00,
2013-01-10 17:43:00,78.0,70.0,30.15,ESE,109,8.0,-999.0,76,-99.99,,,-99.99,,2013-01-10 22:43:00,
2013-01-10 18:03:00,78.0,70.0,30.16,ENE,69,8.0,-999.0,77,-99.99,,,-99.99,,2013-01-10 23:03:00,
2013-01-10 18:13:00,78.0,70.0,30.16,East,93,7.0,-999.0,76,-99.99,,,-99.99,,2013-01-10 23:13:00,
2013-01-10 18:23:00,78.0,70.0,30.16,East,93,7.0,-999.0,76,-99.99,,,-99.99,,2013-01-10 23:23:00,
2013-01-10 18:33:00,78.0,70.0,30.17,ENE,74,7.0,-999.0,77,-99.99,,,-99.99,,2013-01-10 23:33:00,
2013-01-10 18:43:00,78.0,70.0,30.17,ENE,74,7.0,-999.0,77,-99.99,,,-99.99,,2013-01-10 23:43:00,
2013-01-10 18:53:00,77.0,70.0,30.17,East,83,9.0,-999.0,79,-99.99,,,-99.99,,2013-01-10 23:53:00,
2013-01-10 19:03:00,77.0,70.0,30.17,ENE,73,11.0,-999.0,80,-99.99,,,-99.99,,2013-01-11 00:03:00,
2013-01-10 19:13:00,77.0,71.0,30.18,ENE,65,8.0,-999.0,82,-99.99,,,-99.99,,2013-01-11 00:13:00,
2013-01-10 19:23:00,77.0,71.0,30.18,ENE,65,8.0,-999.0,82,-99.99,,,-99.99,,2013-01-11 00:23:00,
2013-01-10 19:33:00,77.0,71.0,30.18,NE,55,9.0,-999.0,82,-99.99,,,-99.99,,2013-01-11 00:33:00,
2013-01-10 19:43:00,77.0,71.0,30.18,NE,55,9.0,-999.0,82,-99.99,,,-99.99,,2013-01-11 00:43:00,
2013-01-10 19:53:00,77.0,71.0,30.18,East,86,10.0,-999.0,82,-99.99,,,-99.99,,2013-01-11 00:53:00,
2013-01-10 20:03:00,77.0,71.0,30.18,East,94,10.0,-999.0,83,-99.99,,,-99.99,,2013-01-11 01:03:00,
2013-01-10 20:13:00,77.0,71.0,30.18,ENE,71,11.0,-999.0,83,-99.99,,,-99.99,,2013-01-11 01:13:00,
2013-01-10 20:23:00,77.0,71.0,30.18,ENE,71,11.0,-999.0,83,-99.99,,,-99.99,,2013-01-11 01:23:00,
2013-01-10 20:34:00,77.0,71.0,30.18,ENE,65,11.0,-999.0,83,-99.99,,,-99.99,,2013-01-11 01:34:00,
2013-01-10 20:43:00,77.0,71.0,30.18,ENE,65,11.0,-999.0,83,-99.99,,,-99.99,,2013-01-11 01:43:00,
2013-01-10 20:53:00,77.0,71.0,30.18,ENE,78,10.0,-999.0,82,-99.99,,,-99.99,,2013-01-11 01:53:00,
2013-01-10 21:03:00,77.0,71.0,30.18,ENE,60,11.0,-999.0,82,-99.99,,,-99.99,,2013-01-11 02:03:00,
2013-01-10 21:13:00,77.0,71.0,30.18,ENE,60,11.0,-999.0,82,-99.99,,,-99.99,,2013-01-11 02:13:00,
2013-01-10 21:23:00,77.0,70.0,30.18,East,98,11.0,-999.0,80,-99.99,,,-99.99,,2013-01-11 02:23:00,
2013-01-10 21:33:00,77.0,70.0,30.19,East,85,13.0,-999.0,80,-99.99,,,-99.99,,2013-01-11 02:33:00,
2013-01-10 21:43:00,77.0,70.0,30.19,East,85,13.0,-999.0,80,-99.99,,,-99.99,,2013-01-11 02:43:00,
2013-01-10 21:54:00,77.0,71.0,30.18,ESE,110,11.0,-999.0,81,-99.99,,,-99.99,,2013-01-11 02:54:00,
2013-01-10 22:03:00,77.0,71.0,30.17,ENE,60,12.0,-999.0,81,-99.99,,,-99.99,,2013-01-11 03:03:00,
2013-01-10 22:12:00,77.0,71.0,30.19,East,84,8.0,-999.0,81,-99.99,,,-99.99,,2013-01-11 03:12:00,
2013-01-10 22:23:00,77.0,71.0,30.19,East,84,8.0,-999.0,81,-99.99,,,-99.99,,2013-01-11 03:23:00,
2013-01-10 22:33:00,77.0,70.0,30.19,East,100,10.0,-999.0,80,-99.99,,,-99.99,,2013-01-11 03:33:00,
2013-01-10 22:43:00,77.0,70.0,30.19,East,100,10.0,-999.0,80,-99.99,,,-99.99,,2013-01-11 03:43:00,
2013-01-10 22:53:00,77.0,71.0,30.18,ENE,76,13.0,-999.0,82,-99.99,,,-99.99,,2013-01-11 03:53:00,
2013-01-10 23:02:00,77.0,71.0,30.18,East,88,13.0,-999.0,82,-99.99,,,-99.99,,2013-01-11 04:02:00,
2013-01-10 23:12:00,77.0,71.0,30.18,East,88,13.0,-999.0,82,-99.99,,,-99.99,,2013-01-11 04:12:00,
2013-01-10 23:22:00,77.0,71.0,30.19,East,84,9.0,-999.0,82,-99.99,,,-99.99,,2013-01-11 04:22:00,
2013-01-10 23:33:00,77.0,71.0,30.19,ENE,63,10.0,-999.0,82,-99.99,,,-99.99,,2013-01-11 04:33:00,
2013-01-10 23:43:00,77.0,71.0,30.19,ENE,63,10.0,-999.0,82,-99.99,,,-99.99,,2013-01-11 04:43:00,
2013-01-10 23:53:00,77.0,71.0,30.19,East,88,12.0,-999.0,82,-99.99,,,-99.99,,2013-01-11 04:53:00,